Weather History for Goodland, KS

Change the Weather History Date:

Monday, February 20, 2012

  Actual Average Record
Temperature  
Mean Temperature 30 °F 34 °F  
Max Temperature 38 °F 47 °F 73 °F (1972)
Min Temperature 22 °F 20 °F -1 °F (1953)
Degree Days  
Heating Degree Days 35 32  
Month to date heating degree days 690 674  
Since 1 July heating degree days 3921 4177  
Cooling Degree Days 0 0  
Month to date cooling degree days 0 0  
Year to date cooling degree days 0 0  
Moisture  
Dew Point 27 °F    
Average Humidity 72    
Maximum Humidity 92    
Minimum Humidity 52    
Precipitation  
Precipitation 0.04 in 0.02 in 0.42 in (1953)
Month to date precipitation 0.42 0.32  
Year to date precipitation 0.51 0.70  
Snow  
Snow 0.30 in 0.20 in - ()
Month to date snowfall 5.4 4.1  
Since 1 July snowfall 17.1 22.7  
Snow Depth 0.00 in    
Sea Level Pressure  
Sea Level Pressure 29.66 in    
Wind  
Wind Speed 24 mph (WNW)    
Max Wind Speed 46 mph    
Max Gust Speed 59 mph    
Visibility 7 miles    
Events Fog , Snow    
T = Trace of Precipitation, MM = Missing Value Source: NWS Daily Summary

Daily Weather History Graph

Daily Weather History Graph

Search for Another Location

Airport:

Trip Planner

Search our weather history database for the weather conditions in past years. The results will help you decide how hot, cold, wet, or windy it might be!

Date:

Astronomy

Feb. 20, 2012 Rise Set
Actual Time 6:32 AM MST 5:28 PM MST
Civil Twilight 6:05 AM MST 5:56 PM MST
Nautical Twilight 5:34 AM MST 6:27 PM MST
Astronomical Twilight 5:03 AM MST 6:58 PM MST
Moon 5:30 AM MST (2/20) 4:35 PM MST (2/20)
Length of Visible Light 11h 50m
Length of Day
10h 55m
Waning Crescent, 1% of the Moon is Illuminated
Feb 20
Waning Crescent
Feb 21
New
Feb 29
First Quarter
Mar 8
Full
Mar 14
Last Quarter

Hourly Weather History & Observations

Time (MST) Temp. Windchill Dew Point Humidity Pressure Visibility Wind Dir Wind Speed Gust Speed Precip Events Conditions
12:53 AM 37.9 °F 28.2 °F 36.0 °F 93% 29.55 in 9.0 mi South 18.4 mph 25.3 mph N/A   Clear
1:53 AM 37.0 °F 28.9 °F 35.1 °F 93% 29.55 in 8.0 mi SSW 12.7 mph - N/A   Mostly Cloudy
2:39 AM 35.6 °F 27.5 °F 33.8 °F 93% 29.53 in 10.0 mi WSW 11.5 mph - N/A   Overcast
2:53 AM 33.1 °F 24.4 °F 28.0 °F 82% 29.54 in 10.0 mi West 11.5 mph - N/A   Mostly Cloudy
3:03 AM 32.0 °F 23.0 °F 28.4 °F 87% 29.53 in 10.0 mi West 11.5 mph - N/A   Scattered Clouds
3:11 AM 32.0 °F 24.2 °F 28.4 °F 87% 29.53 in 9.0 mi WSW 9.2 mph - N/A   Mostly Cloudy
3:27 AM 30.2 °F 21.9 °F 30.2 °F 100% 29.53 in 8.0 mi West 9.2 mph - N/A   Scattered Clouds
3:50 AM 32.0 °F 22.1 °F 30.2 °F 93% 29.53 in 9.0 mi West 13.8 mph - N/A   Mostly Cloudy
3:53 AM 33.1 °F 23.4 °F 30.0 °F 89% 29.53 in 9.0 mi West 13.8 mph - N/A   Mostly Cloudy
4:51 AM 35.6 °F 25.9 °F 32.0 °F 87% 29.52 in 10.0 mi WNW 16.1 mph - N/A   Overcast
4:53 AM 35.1 °F 24.5 °F 32.0 °F 89% 29.52 in 10.0 mi WNW 18.4 mph - N/A   Overcast
5:14 AM 35.6 °F 24.8 °F 32.0 °F 87% 29.53 in 10.0 mi WNW 19.6 mph - N/A   Overcast
5:53 AM 35.1 °F 24.1 °F 32.0 °F 89% 29.55 in 10.0 mi WNW 19.6 mph - N/A   Overcast
6:35 AM 33.8 °F 21.6 °F 30.2 °F 87% 29.54 in 10.0 mi WNW 23.0 mph 32.2 mph N/A   Overcast
6:53 AM 34.0 °F 20.8 °F 28.9 °F 82% 29.57 in 10.0 mi WNW 27.6 mph 35.7 mph N/A   Overcast
7:21 AM 32.0 °F 18.1 °F 28.4 °F 87% 29.55 in 10.0 mi NW 27.6 mph 35.7 mph N/A   Mostly Cloudy
7:53 AM 33.1 °F 19.1 °F 28.9 °F 85% 29.60 in 9.0 mi NW 29.9 mph 39.1 mph 0.00 in Snow Light Snow
8:00 AM 33.8 °F 19.4 °F 28.4 °F 81% 29.57 in 9.0 mi NW 33.4 mph 44.9 mph 0.00 in Snow Light Snow
8:11 AM 33.8 °F 19.4 °F 28.4 °F 81% 29.58 in 10.0 mi NW 33.4 mph 44.9 mph 0.00 in   Scattered Clouds
8:25 AM 33.8 °F 19.2 °F 28.4 °F 81% 29.58 in 10.0 mi NW 34.5 mph 42.6 mph 0.00 in   Mostly Cloudy
8:53 AM 35.1 °F 20.6 °F 28.0 °F 76% 29.62 in 10.0 mi NW 36.8 mph 44.9 mph 0.00 in   Mostly Cloudy
9:53 AM 34.0 °F 19.3 °F 28.0 °F 79% 29.64 in 5.0 mi NW 35.7 mph 50.6 mph 0.00 in Snow Light Snow
10:19 AM 33.8 °F 18.1 °F 28.4 °F 81% 29.62 in 2.5 mi NW 41.4 mph 47.2 mph 0.00 in Snow Light Snow
10:53 AM 33.1 °F 17.3 °F 28.9 °F 85% 29.65 in 1.8 mi NW 40.3 mph 51.8 mph 0.00 in Snow Light Snow
11:12 AM 32.0 °F 16.5 °F 28.4 °F 87% 29.61 in 1.0 mi NW 35.7 mph 52.9 mph 0.00 in Snow Light Snow
11:22 AM 32.0 °F 15.6 °F 28.4 °F 87% 29.61 in 0.8 mi NW 41.4 mph 51.8 mph 0.00 in Snow Light Snow
11:24 AM 32.0 °F 15.6 °F 28.4 °F 87% 29.61 in 0.8 mi NW 41.4 mph 56.4 mph 0.00 in Snow Light Snow
11:38 AM 32.0 °F 16.2 °F 30.2 °F 93% 29.62 in 0.5 mi NW 38.0 mph 51.8 mph 0.00 in Fog , Snow Snow
11:53 AM 32.0 °F 15.4 °F 28.9 °F 88% 29.65 in 0.8 mi NW 42.6 mph 54.1 mph 0.00 in Snow Light Snow
12:00 PM 32.0 °F 15.4 °F 30.2 °F 93% 29.62 in 0.8 mi NW 42.6 mph 54.1 mph 0.00 in Snow Light Snow
12:18 PM 30.2 °F 13.1 °F 28.4 °F 93% 29.63 in 1.0 mi NW 41.4 mph 54.1 mph 0.00 in Snow Light Snow
12:48 PM 30.2 °F 13.5 °F 28.4 °F 93% 29.65 in 0.8 mi NW 39.1 mph 58.7 mph 0.00 in Snow Light Snow
12:53 PM 30.9 °F 14.1 °F 28.0 °F 89% 29.68 in 0.8 mi NNW 41.4 mph 58.7 mph 0.00 in Snow Light Snow
1:12 PM 30.2 °F 13.3 °F 28.4 °F 93% 29.66 in 1.0 mi NNW 40.3 mph 48.3 mph 0.00 in Snow Light Snow
1:41 PM 30.2 °F 13.9 °F 28.4 °F 93% 29.68 in 1.8 mi NNW 36.8 mph 49.5 mph 0.00 in Snow Light Snow
1:48 PM 32.0 °F 17.0 °F 28.4 °F 87% 29.68 in 3.0 mi NNW 33.4 mph 49.5 mph 0.00 in Snow Light Snow
1:49 PM 32.0 °F 16.5 °F 28.9 °F 88% 29.72 in 3.0 mi NNW 35.7 mph 47.2 mph 0.00 in Snow Light Snow
1:58 PM 33.8 °F 19.4 °F 28.4 °F 81% 29.68 in 7.0 mi NNW 33.4 mph 48.3 mph 0.01 in Snow Light Snow
2:53 PM 36.0 °F 21.5 °F 24.1 °F 62% 29.75 in 10.0 mi NNW 39.1 mph 54.1 mph 0.01 in   Clear
3:53 PM 37.4 °F 24.4 °F 21.2 °F 52% 29.75 in 10.0 mi NNW 33.4 mph 43.7 mph N/A   Clear
4:53 PM 36.0 °F 24.2 °F 19.9 °F 52% 29.83 in 10.0 mi NNW 24.2 mph 35.7 mph N/A   Clear
5:53 PM 32.0 °F 20.8 °F 19.0 °F 59% 29.87 in 10.0 mi NW 17.3 mph 25.3 mph N/A   Clear
6:53 PM 27.0 °F 15.6 °F 19.0 °F 72% 29.91 in 10.0 mi NW 13.8 mph - N/A   Clear
7:53 PM 27.0 °F 15.2 °F 17.1 °F 66% 29.94 in 10.0 mi WNW 15.0 mph - N/A   Clear
8:53 PM 25.0 °F 13.6 °F 16.0 °F 69% 29.96 in 10.0 mi WNW 12.7 mph - N/A   Clear
9:53 PM 25.0 °F 13.1 °F 15.1 °F 66% 29.97 in 10.0 mi WNW 13.8 mph - N/A   Clear
10:53 PM 24.1 °F 14.4 °F 15.1 °F 69% 29.99 in 10.0 mi West 9.2 mph - N/A   Clear
11:53 PM 23.0 °F 13.9 °F 15.1 °F 72% 29.99 in 10.0 mi WNW 8.1 mph - N/A   Clear